Weather in Aradan

Russia / Krasnoyarsk Krai     52°34′32″N   93°26′35″E
temp.,
°C
wind,
m/s
gust,
m/s
humid.,
%
clouds,
%
prec.,
mm/h
press.,
hPa
HPBL,
m
14 may, fri
fri1401:00+1nne116684 0.0 101713
04:000nne1166100 0.0 101710
07:00+4ne115299 0.0 1017118
10:00+11s1132100 0.0 1014863
13:00+16nne0322100 0.0 10122343
16:00+15ene242453 0.0 10102657
19:00+7n1280100 1.4 1017275
22:00+5nw2393100 2.3 1020447
15 may, sat
sat1501:00+5wnw129180 3.9 1022243
04:00+2n1194100 0.1 102316
07:00+5sw1186100 0.1 1024267
10:00+9w1558100 0.1 10231409
13:00+12w244386 0.1 10211800
16:00+13nw354196 0.0 10201814
19:00+12nw255455 0.0 1021876
22:00+8nne117087 0.0 102112
16 may, sun
sun1601:00+7n007884 0.0 102211
04:00+4sse11895 0.0 102110
07:00+8s01705 0.0 1020175
10:00+15sw134575 0.0 10171151
13:00+16nw144187 0.0 10151878
16:00+18wnw3738100 0.0 10122297
19:00+15wnw28506 0.1 10121372
22:00+9ene007289 0.0 101211
17 may, mon
mon1701:00+10w1176100 0.4 101119
04:00+8sw2385100 0.1 1011103
07:00+9sw1289100 0.8 1011112
10:00+9wsw2290100 2.1 1012270
13:00+9ssw118799 5.8 1012196
16:00+9n2389100 0.7 1013329
19:00+8nne1192100 1.2 101370
22:00+7e1194100 2.5 101538
18 may, tue
tue1801:00+7n1193100 2.8 101416
04:00+5ne119470 0.1 101511
07:00+8s128597 0.1 1012143
10:00+11sw2567100 0.1 10091283
13:00+9sse1387100 2.6 1009297
16:00+12w21280100 1.8 10071544
19:00+9ssw2592100 3.8 1007131
22:00+8sw2297100 1.0 100740